Terug naar catalogus

TITAN 3C TRANSTAGE DEB

LostMEO
NORAD 43448·DEBRIS·🇺🇸 United States

Gelanceerd Feb 9, 1969 vanaf Cape Canaveral Space Force Station

Loading…

Volgende Passages (komende 24 uur)

TLE

VerouderdSource: Space-Track

Epoch: Aug 11, 2026, 19:05 UTC

1 43448U 69013H   26223.79576489  .00000002  00000-0  00000-0 0  9994
2 43448   1.2999 102.2905 0284724  45.0060 317.1371  0.98710960 30091

Volg TITAN 3C TRANSTAGE DEB in realtime met AllMySat

Download on the App Store